Location: Giszowiec
(50.2205°N, 19.0690°E)
Time: 05:29:21
(UTC+00:00)

Daily predictions for brighter satellites

Satellite Brightness Start Highest point End
(mag) Time Altitude Azimuth Time Altitude Azimuth Time Altitude Azimuth
Meteor 2-19 Rocket 4.4 00:03:12 10° N 00:09:25 89° W 00:11:31 45° S
Okean 1 Rocket 3.4 00:09:30 53° WNW 00:09:31 53° WNW 00:13:50 10° N
SJ 16-02 1.3 00:09:53 67° W 00:10:04 68° WNW 00:14:29 10° NNE
SL-16 R/B 2.9 00:08:46 10° NW 00:13:48 37° WSW 00:13:48 37° WSW
Cosmos 2263 Rocket 3.0 00:14:58 32° SE 00:16:30 39° ESE 00:21:39 10° NE
SL-14 R/B 3.5 00:13:45 10° NNW 00:17:08 59° NW 00:17:08 59° NW
Cosmos 724 4.2 00:12:48 10° NW 00:18:47 69° WSW 00:20:59 40° SSE
NOSS 2-3 (D) 4.2 00:21:05 43° SE 00:21:25 43° ESE 00:26:11 10° NE
MOZ.5/SAFIR/RUBIN 5/SL-8 3.7 00:22:13 61° SW 00:22:37 64° WSW 00:27:20 10° NNW
SL-19 R/B 4.2 00:19:23 10° NNE 00:25:15 78° WNW 00:26:52 48° SW
Cosmos 1937 Rocket 3.5 00:27:08 51° S 00:28:28 77° ESE 00:33:48 10° NNE
CZ-4C R/B 3.1 00:29:47 76° NNW 00:29:47 76° NNW 00:33:14 10° NNW
Okean 1-7 Rocket 3.4 00:26:17 10° NNW 00:30:43 76° W 00:31:14 66° SSW
ADEOS II 3.3 00:26:07 10° NNE 00:30:53 34° E 00:33:35 21° SE
Cosmos 990 Rocket 4.0 00:29:47 52° SW 00:31:00 73° WNW 00:36:11 10° NNE
COBE Rocket 4.2 00:29:03 31° SE 00:31:08 59° ENE 00:35:43 10° N
Cosmos 2297 Rocket 3.5 00:28:55 21° W 00:31:39 32° NW 00:36:42 10° NNE
Cosmos 1626 Rocket 4.0 00:30:07 10° N 00:34:25 57° ENE 00:35:59 35° SE
CZ-4B R/B 4.2 00:30:25 10° NNE 00:34:57 42° E 00:36:44 29° SSE
Cosmos 2266 Rocket 3.9 00:29:18 10° N 00:35:40 82° W 00:38:25 36° S
Cosmos 1455 Rocket 3.0 00:35:30 63° SSW 00:36:14 89° W 00:40:44 10° N
ATLAS CENTAUR R/B 3.1 00:37:35 20° SE 00:38:03 21° ESE 00:41:04 10° ENE
USA 229 DEB 3.6 00:36:45 39° SW 00:39:26 87° SE 00:46:26 10° NE
USA 229 3.6 00:36:53 39° SW 00:39:33 87° SE 00:46:31 10° NE
UNK 3.8 00:38:59 55° SW 00:39:42 63° WSW 00:44:22 10° NNW
Cosmos 1726 3.0 00:39:49 36° ESE 00:40:28 40° E 00:43:56 10° NNE
Meteor 1-21 Rocket 4.4 00:39:53 10° N 00:45:26 68° ENE 00:49:17 20° SSE
GEOS 3 Rocket 3.9 00:40:06 10° NE 00:45:28 59° SE 00:47:19 39° S
Cosmos 1898 Rocket 3.7 00:43:57 43° WSW 00:45:29 62° WNW 00:50:40 10° NNE
Cosmos 1932 4.4 00:41:02 10° NW 00:47:35 82° SW 00:53:57 10° SSE
Cosmos 1892 Rocket 4.1 00:43:35 10° NNW 00:47:45 39° W 00:47:51 39° W
Meteor 1-24 Rocket 4.1 00:43:19 10° NNW 00:48:17 38° W 00:49:06 36° WSW
NOSS 2-3 (C) 3.7 00:48:08 52° SSW 00:49:10 74° SE 00:54:22 10° NE
NOSS 3-1 (A) 3.3 00:48:36 41° SSW 00:50:44 79° SE 00:57:17 10° NE
IRAS Rocket 4.4 00:49:56 40° SSW 00:51:29 51° WSW 00:56:58 10° NNW
ARIANE 5 R/B 4.2 00:47:17 10° NE 00:51:47 28° E 00:55:51 12° SSE
Cosmos 1603 3.7 00:49:06 10° NW 00:54:45 60° WSW 00:57:17 32° S
SL-19 R/B 4.5 00:51:42 23° S 00:55:55 77° WSW 01:01:59 10° NNW
Cosmos 1461 4.2 00:55:29 25° W 00:57:22 36° NW 01:01:40 10° NNE
CZ-2D R/B 2.3 01:00:16 10° N 01:05:41 62° WNW 01:08:00 34° SW
MINOTAUR IV R/B 4.5 01:01:20 10° NNW 01:05:51 86° WSW 01:08:58 20° SSE
Cosmos 1340 Rocket 3.1 01:07:07 45° WSW 01:07:46 51° WNW 01:11:38 10° N
Cosmos 1758 3.5 01:08:43 46° WSW 01:09:29 55° WNW 01:13:26 10° N
SL-16 R/B 3.1 01:09:25 31° SW 01:11:33 40° W 01:17:25 10° NNW
H-2A R/B 4.3 01:08:40 10° ESE 01:11:55 23° ENE 01:15:12 10° N
USA 215 4.4 01:07:02 10° ENE 01:12:38 30° SE 01:16:30 17° S
Nadezhda 2 Rocket 4.4 01:06:47 10° N 01:13:02 89° ENE 01:18:09 15° S
Cosmos 1943 3.3 01:07:50 10° NW 01:13:17 51° WSW 01:16:09 26° S
Cosmos 1703 3.7 01:10:38 10° N 01:14:35 61° ENE 01:17:24 18° SSE
Cosmos 1825 Rocket 4.4 01:11:32 10° N 01:15:45 48° ENE 01:19:56 10° SSE
Cosmos 1626 4.3 01:14:04 10° NW 01:15:17 13° WNW 01:15:17 13° WNW
Cosmos 1125 Rocket 4.4 01:13:42 19° SSE 01:17:03 44° ESE 01:22:04 10° NE
IRS-1D 3.5 01:17:40 10° NNE 01:22:48 84° WNW 01:25:39 28° SSW
Cosmos 2227 Rocket 4.1 01:18:42 10° W 01:22:49 20° NW 01:26:57 10° N
Cosmos 1544 Rocket 4.1 01:22:37 33° WSW 01:24:01 43° WNW 01:28:18 10° N
NPP 4.0 01:19:14 10° N 01:24:27 51° WNW 01:27:04 28° SW
Cosmos 1470 3.8 01:24:19 29° W 01:25:09 31° WNW 01:28:45 10° N
Cosmos 1953 2.3 01:23:54 37° SSW 01:25:23 72° W 01:29:28 10° N
Cosmos 1328 4.0 01:24:13 10° N 01:28:14 73° E 01:31:32 15° SSE
AQUA 4.3 01:27:41 10° N 01:32:16 47° WNW 01:34:26 28° SW
CENTAUR R/B 4.4 01:29:22 10° NW 01:36:32 43° NNE 01:44:35 10° E
Resurs 1-4 Rocket 3.1 01:34:13 10° N 01:38:55 34° WNW 01:41:36 21° WSW
Atlas Centaur 2 4.3 01:38:02 12° S 01:39:11 12° SSE 01:41:49 10° SSE
Meteor 2-16 Rocket 4.4 01:34:21 10° NNW 01:40:30 72° W 01:46:34 10° S
Exosat Rocket 4.5 01:36:53 22° SW 01:41:49 55° WNW 01:47:29 10° NNE
Cosmos 1602 Rocket 4.1 01:38:38 10° NNW 01:42:41 39° W 01:44:25 27° SW
Cosmos 1606 Rocket 4.0 01:42:16 14° S 01:46:05 62° E 01:50:30 10° NNE
USA 267 3.5 01:40:28 10° ESE 01:46:58 72° NNE 01:53:30 10° WNW
NOSS 2-3 (E) 4.4 01:44:49 20° WSW 01:47:41 48° NW 01:52:59 10° NE
IDEFIX/ARIANE 42P 3.2 01:42:47 10° NNE 01:47:55 55° E 01:53:02 10° S
SJ 16-02 3.7 01:47:45 10° WNW 01:49:33 12° NW 01:51:21 10° NNW
NOSS 3-1 (C) 4.4 01:48:09 13° W 01:52:58 41° NNW 01:59:27 10° NE
Cosmos 1048 Rocket 4.4 01:51:33 10° NW 01:56:23 42° WSW 02:01:15 10° S
IRS-P3 4.2 01:52:25 10° N 01:57:45 67° WNW 02:01:51 17° SSW
Cosmos 1908 3.3 01:56:15 22° SSW 01:58:38 63° WNW 02:02:33 10° N
Cosmos 2263 Rocket 2.8 01:56:40 18° WSW 02:00:24 42° NW 02:05:43 10° NNE
Cosmos 1726 Rocket 3.8 01:56:26 10° S 02:00:48 70° E 02:05:15 10° NNE
Cosmos 1386 Rocket 4.4 01:55:01 10° N 02:01:04 89° ENE 02:07:06 10° S
Cosmos 2298 Rocket 4.3 01:57:57 20° SW 02:01:33 56° WNW 02:06:50 10° NNE
Cosmos 2228 3.0 01:59:31 14° S 02:03:17 88° WNW 02:07:43 10° N
Meteor 1-16 Rocket 4.4 02:01:57 17° SSW 02:06:03 56° WNW 02:11:38 10° N
Meteor 1-28 Rocket 3.8 02:06:34 18° SSW 02:08:58 36° W 02:12:31 10° NNW
SL-08 R/B 3.9 02:05:26 12° SSW 02:09:47 41° W 02:14:28 10° NNW
ADEOS II 2.7 02:05:44 10° N 02:10:40 42° WNW 02:14:31 16° SW
Spot 4 Rocket 4.1 02:07:24 10° NNE 02:12:37 89° ESE 02:17:46 10° SSW
CZ-2C R/B 3.2 02:09:04 10° NNE 02:12:52 61° E 02:16:34 10° S
CZ-4B R/B 4.5 02:09:25 10° N 02:13:31 29° WNW 02:16:40 15° WSW
Cosmos 1356 Rocket 3.4 02:10:31 11° S 02:14:30 89° SE 02:18:37 10° NNE
Cosmos 1726 3.9 02:14:19 14° W 02:15:52 18° WNW 02:18:27 10° NNW
Cosmos 2285 Rocket 4.2 02:10:59 16° SW 02:16:05 58° WNW 02:22:20 10° NNE
ATLAS CENTAUR R/B 1.6 02:13:46 17° WSW 02:16:41 56° NW 02:20:29 10° NE
Cosmos 1269 Rocket 4.0 02:13:06 10° NNW 02:18:24 70° WSW 02:23:39 10° SSE
Cosmos 1300 2.8 02:15:06 10° S 02:18:53 75° E 02:22:44 10° NNE
Cosmos 1553 Rocket 4.1 02:15:28 11° SSW 02:21:15 60° WNW 02:27:22 10° N
NOSS 3-2 (A) 4.3 02:14:08 10° NW 02:21:27 74° NE 02:29:47 10° SE
NOSS 2-2 (C) 4.1 02:18:19 11° SSW 02:21:31 41° SE 02:25:15 10° NE
ERS-2 2.1 02:19:03 10° SSE 02:22:42 85° ENE 02:26:23 10° NNW
Cosmos 1844 Rocket 2.8 02:17:42 11° SSW 02:23:10 81° ESE 02:28:47 10° NNE
Meteor 1-11 4.5 02:19:29 10° NNW 02:25:02 51° W 02:30:29 10° SSW
OPS 6432 4.4 02:22:01 10° NW 02:25:05 57° SW 02:28:53 10° SSE
Cosmos 1833 Rocket 4.2 02:20:33 10° NNW 02:25:54 41° NE 02:31:12 10° ESE
CZ-4C R/B 2.8 02:23:12 10° S 02:26:30 65° WSW 02:29:55 10° NNW
NOSS 8 (H) 4.1 02:24:24 16° SW 02:26:47 88° ESE 02:29:51 10° NE
Cosmos 1745 Rocket 4.1 02:23:50 10° NNW 02:29:57 56° W 02:35:57 10° SSW
ARIANE 5 R/B 2.9 02:26:04 10° N 02:31:07 49° WNW 02:36:08 10° SW
Cosmos 2084 4.2 02:28:47 12° WSW 02:32:39 47° NW 02:36:59 10° NE
Lacrosse 5 rocket 4.0 02:32:01 10° SSE 02:34:32 15° ESE 02:37:06 10° E
SeaSat 1 4.0 02:30:35 10° NE 02:35:01 32° ESE 02:39:26 10° S
Meteor 2-15 4.4 02:33:31 10° SSW 02:39:33 73° WNW 02:45:39 10° N
Cosmos 1867 3.6 02:36:12 10° NW 02:41:42 87° SW 02:47:09 10° SE
CZ-2D R/B 4.2 02:42:09 10° NNW 02:44:43 13° NW 02:47:16 10° WNW
Cosmos 2058 Rocket 3.1 02:42:53 10° SSW 02:47:18 64° WNW 02:51:43 10° N
H-2A R/B 2.4 02:43:49 10° S 02:47:42 41° W 02:51:37 10° NNW
CZ-2C R/B 2.7 02:47:15 10° NNE 02:51:51 67° ESE 02:56:30 10° S
Cosmos 2058 3.1 02:48:43 10° N 02:52:56 79° E 02:57:08 10° SSE
S3M 4.4 02:47:01 10° SSW 02:53:12 50° WNW 02:59:25 10° N
USA 215 3.4 02:49:41 10° ENE 02:56:16 82° SE 03:02:50 10° SW
Landsat 5 4.0 02:52:58 10° SSW 02:56:42 36° W 03:00:36 10° NNW
Cosmos 1408 3.2 02:53:29 10° N 02:57:12 63° ENE 03:00:52 10° SSE
In-Cosmos 22 Rocket 4.3 02:51:31 10° NNW 02:57:21 72° W 03:03:06 10° S
ATLAS 3B R/B 4.1 02:51:25 10° NW 02:57:47 41° NNE 03:04:20 10° E
Cosmos 1125 Rocket 4.5 02:54:32 10° WSW 02:59:17 34° NW 03:04:06 10° N
